| time (UTC) | temp F | wind direction | speed MPH | gust MPH | rain 1hr in | rain 24hr in | rain mn in | humidity % | barometer mb |
| 20260902191515 | 94 | 360 | 2.0 | 8.0 | 0.00 | 0.00 | 0.00 | 58 | 1012.9 |
| 20260902190018 | 94 | 360 | 3.0 | 10.0 | 0.00 | 0.00 | 0.00 | 59 | 1012.9 |
| 20260902184543 | 93 | 360 | 3.0 | 8.0 | 0.00 | 0.00 | 0.00 | 60 | 1013.1 |
| 20260902183029 | 92 | 360 | 4.0 | 10.0 | 0.00 | 0.00 | 0.00 | 62 | 1013.3 |
| 20260902181513 | 91 | 360 | 2.0 | 6.0 | 0.00 | 0.00 | 0.00 | 64 | 1013.7 |
| 20260902180018 | 91 | 360 | 2.0 | 6.0 | 0.00 | 0.00 | 0.00 | 66 | 1014.0 |
| 20260902174522 | 91 | 360 | 2.0 | 6.0 | 0.00 | 0.00 | 0.00 | 67 | 1014.2 |
| 20260902173010 | 91 | 360 | 3.0 | 9.0 | 0.00 | 0.00 | 0.00 | 68 | 1014.5 |
| 20260902171515 | 89 | 360 | 3.0 | 10.0 | 0.00 | 0.00 | 0.00 | 70 | 1014.8 |
| 20260902170017 | 89 | 360 | 3.0 | 10.0 | 0.00 | 0.00 | 0.00 | 71 | 1014.9 |
| 20260902164520 | 88 | 360 | 2.0 | 8.0 | 0.00 | 0.00 | 0.00 | 73 | 1015.0 |
| 20260902163046 | 87 | 360 | 3.0 | 8.0 | 0.00 | 0.00 | 0.00 | 74 | 1015.2 |
| 20260902161549 | 87 | 360 | 2.0 | 14.0 | 0.00 | 0.00 | 0.00 | 75 | 1015.3 |
| 20260902160017 | 86 | 360 | 3.0 | 9.0 | 0.00 | 0.00 | 0.00 | 76 | 1015.1 |
| 20260902154521 | 86 | 360 | 2.0 | 9.0 | 0.00 | 0.00 | 0.00 | 79 | 1015.0 |
| 20260902153025 | 85 | 360 | 3.0 | 10.0 | 0.00 | 0.00 | 0.00 | 79 | 1014.9 |
| 20260902151513 | 85 | 360 | 2.0 | 8.0 | 0.00 | 0.00 | 0.00 | 81 | 1014.8 |
| 20260902150036 | 84 | 360 | 2.0 | 6.0 | 0.00 | 0.00 | 0.00 | 82 | 1014.8 |
| 20260902144522 | 84 | 360 | 3.0 | 8.0 | 0.00 | 0.00 | 0.00 | 82 | 1014.7 |
| 20260902143024 | 83 | 360 | 3.0 | 11.0 | 0.00 | 0.00 | 0.00 | 83 | 1014.6 |
| 20260902141533 | 83 | 360 | 4.0 | 9.0 | 0.00 | 0.00 | 0.00 | 84 | 1014.7 |
| 20260902140013 | 82 | 360 | 2.0 | 12.0 | 0.00 | 0.00 | 0.00 | 84 | 1014.6 |
| 20260902134521 | 82 | 360 | 1.0 | 10.0 | 0.00 | 0.00 | 0.00 | 84 | 1014.6 |
| 20260902133026 | 82 | 360 | 2.0 | 6.0 | 0.00 | 0.00 | 0.00 | 85 | 1014.5 |
| 20260902131515 | 82 | 360 | 2.0 | 10.0 | 0.00 | 0.00 | 0.00 | 85 | 1014.3 |
| 20260902130020 | 82 | 360 | 0.0 | 8.0 | 0.00 | 0.00 | 0.00 | 85 | 1014.2 |
| 20260902124528 | 82 | 360 | 1.0 | 8.0 | 0.00 | 0.00 | 0.00 | 85 | 1014.1 |
| 20260902123031 | 82 | 360 | 3.0 | 9.0 | 0.00 | 0.00 | 0.00 | 85 | 1013.8 |
| 20260902121534 | 82 | 360 | 2.0 | 9.0 | 0.00 | 0.00 | 0.00 | 85 | 1013.2 |
| 20260902120019 | 82 | 360 | 4.0 | 10.0 | 0.00 | 0.00 | 0.00 | 85 | 1012.7 |
| 20260902114543 | 82 | 360 | 4.0 | 12.0 | 0.00 | 0.00 | 0.00 | 85 | 1012.7 |
| 20260902113028 | 82 | 360 | 4.0 | 10.0 | 0.00 | 0.00 | 0.00 | 85 | 1012.8 |
| 20260902111512 | 82 | 360 | 3.0 | 6.0 | 0.00 | 0.00 | 0.00 | 85 | 1012.7 |
| 20260902110019 | 82 | 360 | 3.0 | 10.0 | 0.00 | 0.00 | 0.00 | 85 | 1012.6 |
| 20260902104523 | 82 | 360 | 3.0 | 9.0 | 0.00 | 0.00 | 0.00 | 85 | 1012.7 |
| 20260902103032 | 82 | 360 | 2.0 | 9.0 | 0.00 | 0.00 | 0.00 | 85 | 1012.8 |
| 20260902101536 | 82 | 360 | 2.0 | 8.0 | 0.00 | 0.00 | 0.00 | 84 | 1012.9 |
| 20260902100018 | 82 | 360 | 3.0 | 10.0 | 0.00 | 0.00 | 0.00 | 84 | 1012.7 |
| 20260902094525 | 82 | 360 | 4.0 | 11.0 | 0.00 | 0.00 | 0.00 | 84 | 1012.5 |
| 20260902093010 | 82 | 360 | 4.0 | 15.0 | 0.00 | 0.00 | 0.00 | 84 | 1012.5 |
| 20260902091538 | 82 | 360 | 4.0 | 16.0 | 0.00 | 0.00 | 0.00 | 84 | 1012.5 |
| 20260902090019 | 82 | 360 | 4.0 | 12.0 | 0.00 | 0.00 | 0.00 | 84 | 1012.4 |
| 20260902084527 | 82 | 360 | 4.0 | 10.0 | 0.00 | 0.00 | 0.00 | 84 | 1012.3 |
| 20260902083012 | 82 | 360 | 4.0 | 14.0 | 0.00 | 0.00 | 0.00 | 84 | 1012.3 |
| 20260902081541 | 81 | 360 | 3.0 | 8.0 | 0.00 | 0.00 | 0.00 | 84 | 1012.5 |
| 20260902080025 | 81 | 360 | 3.0 | 10.0 | 0.00 | 0.00 | 0.00 | 84 | 1012.5 |
| 20260902074514 | 80 | 360 | 1.0 | 5.0 | 0.00 | 0.00 | 0.00 | 82 | 1012.6 |
| 20260902073020 | 80 | 360 | 1.0 | 5.0 | 0.00 | 0.00 | 0.00 | 80 | 1012.6 |
| 20260902071547 | 80 | 360 | 1.0 | 5.0 | 0.00 | 0.00 | 0.00 | 80 | 1012.8 |
| 20260902070027 | 80 | 360 | 1.0 | 2.0 | 0.00 | 0.00 | 0.00 | 80 | 1012.8 |
| 20260902064515 | 80 | 360 | 2.0 | 6.0 | 0.00 | 0.00 | 0.00 | 80 | 1012.8 |
| 20260902063019 | 80 | 360 | 2.0 | 6.0 | 0.00 | 0.00 | 0.00 | 80 | 1012.8 |
| 20260902061524 | 80 | 360 | 2.0 | 5.0 | 0.00 | 0.00 | 0.00 | 81 | 1012.8 |
| 20260902060030 | 80 | 360 | 0.0 | 4.0 | 0.00 | 0.00 | 0.00 | 81 | 1012.5 |
| 20260902054514 | 80 | 360 | 2.0 | 5.0 | 0.00 | 0.00 | 0.00 | 81 | 1012.5 |
| 20260902053041 | 80 | 360 | 0.0 | 6.0 | 0.00 | 0.00 | 0.00 | 81 | 1012.4 |
| 20260902051526 | 80 | 360 | 2.0 | 9.0 | 0.00 | 0.00 | 0.00 | 82 | 1012.6 |
| 20260902050028 | 79 | 360 | 3.0 | 6.0 | 0.00 | 0.00 | 0.00 | 82 | 1012.6 |
| 20260902044511 | 79 | 360 | 3.0 | 8.0 | 0.00 | 0.00 | 0.00 | 83 | 1012.6 |
| 20260902043019 | 79 | 360 | 2.0 | 9.0 | 0.00 | 0.00 | 0.00 | 83 | 1012.8 |
| 20260902041523 | 79 | 360 | 3.0 | 8.0 | 0.00 | 0.00 | 0.00 | 84 | 1012.9 |
| 20260902040032 | 79 | 360 | 2.0 | 5.0 | 0.00 | 0.00 | 0.00 | 85 | 1012.9 |
| 20260902034515 | 79 | 360 | 2.0 | 5.0 | 0.00 | 0.00 | 0.00 | 85 | 1012.9 |
| 20260902033018 | 79 | 360 | 1.0 | 4.0 | 0.00 | 0.00 | 0.00 | 85 | 1012.9 |
| 20260902031542 | 79 | 360 | 2.0 | 5.0 | 0.00 | 0.00 | 0.00 | 86 | 1012.8 |
| 20260902030018 | 79 | 360 | 1.0 | 3.0 | 0.00 | 0.00 | 0.00 | 86 | 1012.7 |
| 20260902024526 | 79 | 360 | 1.0 | 3.0 | 0.00 | 0.00 | 0.00 | 86 | 1012.7 |
| 20260902023010 | 79 | 360 | 1.0 | 3.0 | 0.00 | 0.00 | 0.00 | 86 | 1012.2 |
| 20260902021519 | 79 | 360 | 1.0 | 3.0 | 0.00 | 0.00 | 0.00 | 86 | 1011.9 |
| 20260902020024 | 79 | 360 | 1.0 | 5.0 | 0.00 | 0.00 | 0.00 | 85 | 1011.9 |
| 20260902014512 | 79 | 360 | 2.0 | 4.0 | 0.00 | 0.00 | 0.00 | 85 | 1011.7 |
| 20260902013015 | 79 | 360 | 2.0 | 5.0 | 0.00 | 0.00 | 0.00 | 85 | 1011.6 |
| 20260902011521 | 79 | 360 | 1.0 | 3.0 | 0.00 | 0.00 | 0.00 | 85 | 1011.6 |
| 20260902010021 | 79 | 360 | 1.0 | 3.0 | 0.00 | 0.00 | 0.00 | 85 | 1011.5 |
| 20260902004529 | 80 | 360 | 1.0 | 3.0 | 0.00 | 0.00 | 0.00 | 85 | 1011.7 |
| 20260902003012 | 79 | 360 | 2.0 | 4.0 | 0.00 | 0.00 | 0.00 | 86 | 1011.9 |
| 20260902001521 | 80 | 360 | 0.0 | 2.0 | 0.00 | 0.00 | 0.00 | 88 | 1011.8 |
| 20260902000025 | 80 | 360 | 2.0 | 5.0 | 0.00 | 0.00 | 0.00 | 86 | 1011.7 |
| 20260901234515 | 80 | 360 | 3.0 | 5.0 | 0.00 | 0.00 | 0.00 | 86 | 1011.8 |
| 20260901233017 | 79 | 360 | 1.0 | 4.0 | 0.00 | 0.00 | 0.00 | 87 | 1011.9 |
| 20260901231523 | 79 | 360 | 2.0 | 3.0 | 0.00 | 0.00 | 0.00 | 88 | 1012.0 |
| 20260901230010 | 79 | 360 | 1.0 | 3.0 | 0.00 | 0.00 | 0.00 | 88 | 1012.4 |
| 20260901224514 | 79 | 360 | 3.0 | 5.0 | 0.00 | 0.00 | 0.00 | 88 | 1012.6 |
| 20260901223043 | 79 | 360 | 2.0 | 5.0 | 0.00 | 0.00 | 0.00 | 88 | 1012.7 |
| 20260901221543 | 79 | 360 | 0.0 | 3.0 | 0.00 | 0.00 | 0.00 | 89 | 1012.7 |
| 20260901220010 | 79 | 360 | 2.0 | 4.0 | 0.00 | 0.00 | 0.00 | 89 | 1012.8 |
| 20260901214514 | 79 | 355 | 2.0 | 8.0 | 0.00 | 0.00 | 0.00 | 88 | 1013.0 |
| 20260901213019 | 80 | 360 | 3.0 | 12.0 | 0.00 | 0.00 | 0.00 | 88 | 1013.3 |
| 20260901211524 | 81 | 360 | 0.0 | 0.0 | 0.00 | 0.00 | 0.00 | 90 | 1012.9 |
| 20260901210013 | 81 | 360 | 0.0 | 0.0 | 0.00 | 0.00 | 0.00 | 89 | 1012.9 |
| 20260901204517 | 81 | 360 | 0.0 | 0.0 | 0.00 | 0.00 | 0.00 | 88 | 1012.8 |
| 20260901203026 | 82 | 360 | 1.0 | 4.0 | 0.00 | 0.00 | 0.00 | 85 | 1012.8 |
| 20260901201511 | 83 | 360 | 0.0 | 4.0 | 0.00 | 0.00 | 0.00 | 81 | 1013.0 |
| 20260901200020 | 86 | 360 | 1.0 | 6.0 | 0.00 | 0.00 | 0.00 | 73 | 1013.3 |
| 20260901194523 | 87 | 360 | 2.0 | 6.0 | 0.00 | 0.00 | 0.00 | 68 | 1013.7 |
| 20260901193011 | 87 | 360 | 0.0 | 6.0 | 0.00 | 0.00 | 0.00 | 70 | 1013.7 |